When you browse on this site, cookies collect data to enhance your experience and personalize the content and advertising you see.
Visit our Privacy Policy to learn more. By continuing to use the site, you agree to this use of cookies and data.
  • In Czech Republic
  • List of Countries
  • For 7 days
  • Water Temperature
  • Weather Map
  • Weather Widgets
  • user-avatar
    Login

    Hourly Weather Liege

    Today, 5 June, Friday

    Time Temperature Precipitation Wind Pressure Humidity
    00:00 +8°C° 0 mm 2 mps 740 mmHg 96%
    01:00 +7°C° 0.1 mm 2 mps 740 mmHg 96%
    02:00 +7°C° 0.1 mm 3 mps 739 mmHg 96%
    03:00 +5°C° 0.1 mm 3 mps 739 mmHg 95%
    04:00 +6°C° 0.1 mm 4 mps 739 mmHg 93%
    05:00 +7°C° 0.1 mm 5 mps 739 mmHg 91%
    06:00 +8°C° 0.1 mm 5 mps 738 mmHg 89%
    07:00 +9°C° 0.3 mm 6 mps 738 mmHg 89%
    08:00 +9°C° 0.3 mm 6 mps 737 mmHg 88%
    09:00 +10°C° 0.3 mm 7 mps 736 mmHg 88%
    10:00 +10°C° 1.2 mm 7 mps 736 mmHg 90%
    11:00 +9°C° 1.2 mm 7 mps 736 mmHg 92%
    12:00 +9°C° 1.2 mm 7 mps 735 mmHg 94%
    13:00 +10°C° 1.4 mm 7 mps 735 mmHg 88%
    14:00 +11°C° 1.4 mm 8 mps 735 mmHg 82%
    15:00 +12°C° 1.4 mm 8 mps 736 mmHg 76%
    16:00 +11°C° 0.5 mm 7 mps 736 mmHg 80%
    17:00 +10°C° 0.5 mm 7 mps 737 mmHg 84%
    18:00 +9°C° 0.5 mm 6 mps 738 mmHg 88%
    19:00 +8°C° 0.1 mm 5 mps 738 mmHg 89%
    20:00 +7°C° 0.1 mm 5 mps 739 mmHg 90%
    21:00 +6°C° 0.1 mm 4 mps 740 mmHg 91%
    22:00 +7°C° 0.1 mm 4 mps 740 mmHg 91%
    23:00 +7°C° 0.1 mm 5 mps 740 mmHg 91%

    Tomorrow, 6 June, Saturday

    Time Temperature Precipitation Wind Pressure Humidity
    00:00 +7°C° 0.1 mm 5 mps 740 mmHg 91%
    01:00 +6°C° 0 mm 5 mps 740 mmHg 92%
    02:00 +6°C° 0 mm 5 mps 740 mmHg 92%
    03:00 +6°C° 0 mm 5 mps 740 mmHg 93%
    04:00 +6°C° 0.1 mm 5 mps 740 mmHg 93%
    05:00 +7°C° 0.1 mm 5 mps 740 mmHg 93%
    06:00 +7°C° 0.1 mm 5 mps 740 mmHg 92%
    07:00 +9°C° 0.2 mm 6 mps 740 mmHg 85%
    08:00 +10°C° 0.2 mm 7 mps 740 mmHg 78%
    09:00 +11°C° 0.2 mm 7 mps 741 mmHg 71%
    10:00 +12°C° 0 mm 8 mps 741 mmHg 65%
    11:00 +13°C° 0 mm 8 mps 741 mmHg 59%
    12:00 +13°C° 0 mm 8 mps 741 mmHg 52%
    13:00 +15°C° 0 mm 8 mps 741 mmHg 52%
    14:00 +15°C° 0 mm 8 mps 741 mmHg 52%
    15:00 +15°C° 0 mm 8 mps 741 mmHg 51%
    16:00 +13°C° 0 mm 8 mps 741 mmHg 55%
    17:00 +12°C° 0 mm 7 mps 742 mmHg 59%
    18:00 +11°C° 0 mm 6 mps 742 mmHg 62%
    19:00 +10°C° 0 mm 6 mps 742 mmHg 65%
    20:00 +9°C° 0 mm 5 mps 742 mmHg 68%
    21:00 +8°C° 0 mm 5 mps 743 mmHg 71%
    22:00 +8°C° 0 mm 5 mps 743 mmHg 73%
    23:00 +8°C° 0 mm 5 mps 743 mmHg 74%

    Day after tomorrow, 7 June, Sunday

    Time Temperature Precipitation Wind Pressure Humidity
    00:00 +8°C° 0 mm 5 mps 743 mmHg 75%
    01:00 +7°C° 0.3 mm 5 mps 743 mmHg 81%
    02:00 +7°C° 0.3 mm 5 mps 743 mmHg 88%
    03:00 +7°C° 0.3 mm 5 mps 743 mmHg 94%
    04:00 +8°C° 0.1 mm 5 mps 744 mmHg 94%
    05:00 +8°C° 0.1 mm 5 mps 744 mmHg 93%
    06:00 +9°C° 0.1 mm 5 mps 744 mmHg 93%
    07:00 +10°C° 0.1 mm 5 mps 745 mmHg 84%
    08:00 +13°C° 0.1 mm 5 mps 745 mmHg 76%
    09:00 +14°C° 0.1 mm 5 mps 746 mmHg 67%
    10:00 +15°C° 0.1 mm 5 mps 746 mmHg 63%
    11:00 +17°C° 0.1 mm 4 mps 747 mmHg 58%
    12:00 +18°C° 0.1 mm 4 mps 747 mmHg 54%
    13:00 +19°C° 0.1 mm 4 mps 747 mmHg 53%
    14:00 +19°C° 0.1 mm 3 mps 747 mmHg 53%
    15:00 +19°C° 0.1 mm 3 mps 747 mmHg 52%
    16:00 +19°C° 0.1 mm 2 mps 747 mmHg 58%
    17:00 +18°C° 0.1 mm 2 mps 747 mmHg 64%
    18:00 +19°C° 0.1 mm 1 mps 747 mmHg 70%
    19:00 +16°C° 0 mm 1 mps 748 mmHg 75%
    20:00 +14°C° 0 mm 1 mps 748 mmHg 79%
    21:00 +12°C° 0 mm 1 mps 749 mmHg 84%
    22:00 +11°C° 0 mm 1 mps 749 mmHg 85%
    23:00 +11°C° 0 mm 1 mps 749 mmHg 87%

    8 June, Monday

    Time Temperature Precipitation Wind Pressure Humidity
    00:00 +10°C° 0 mm 1 mps 749 mmHg 88%
    01:00 +10°C° 0 mm 1 mps 749 mmHg 88%
    02:00 +10°C° 0 mm 1 mps 749 mmHg 89%
    03:00 +10°C° 0 mm 1 mps 749 mmHg 89%
    04:00 +11°C° 0 mm 1 mps 749 mmHg 86%
    05:00 +13°C° 0 mm 1 mps 749 mmHg 82%
    06:00 +14°C° 0 mm 1 mps 749 mmHg 78%
    07:00 +16°C° 0.2 mm 1 mps 749 mmHg 74%
    08:00 +18°C° 0.2 mm 1 mps 749 mmHg 69%
    09:00 +20°C° 0.2 mm 1 mps 750 mmHg 65%
    10:00 +21°C° 0.5 mm 1 mps 749 mmHg 62%
    11:00 +21°C° 0.5 mm 1 mps 749 mmHg 59%
    12:00 +21°C° 0.5 mm 2 mps 749 mmHg 56%
    13:00 +21°C° 0.4 mm 2 mps 749 mmHg 58%
    14:00 +21°C° 0.4 mm 2 mps 749 mmHg 59%
    15:00 +21°C° 0.4 mm 2 mps 749 mmHg 60%
    16:00 +20°C° 0.6 mm 2 mps 749 mmHg 66%
    17:00 +20°C° 0.6 mm 1 mps 749 mmHg 73%
    18:00 +19°C° 0.6 mm 1 mps 749 mmHg 79%
    19:00 +18°C° 0.3 mm 1 mps 750 mmHg 81%
    20:00 +16°C° 0.3 mm 2 mps 750 mmHg 83%
    21:00 +14°C° 0.3 mm 2 mps 751 mmHg 85%
    22:00 +14°C° 0 mm 2 mps 751 mmHg 85%
    23:00 +14°C° 0 mm 2 mps 751 mmHg 85%

    9 June, Tuesday

    Time Temperature Precipitation Wind Pressure Humidity
    00:00 +13°C° 0 mm 1 mps 751 mmHg 85%
    01:00 +13°C° 0 mm 1 mps 751 mmHg 85%
    02:00 +13°C° 0 mm 1 mps 751 mmHg 85%
    03:00 +13°C° 0 mm 1 mps 751 mmHg 85%
    04:00 +14°C° 0.1 mm 1 mps 752 mmHg 86%
    05:00 +14°C° 0.1 mm 1 mps 752 mmHg 87%
    06:00 +14°C° 0.1 mm 1 mps 752 mmHg 88%
    07:00 +16°C° 0.6 mm 2 mps 753 mmHg 84%
    08:00 +17°C° 0.6 mm 2 mps 753 mmHg 80%
    09:00 +19°C° 0.6 mm 3 mps 753 mmHg 75%
    10:00 +19°C° 0.6 mm 3 mps 753 mmHg 72%
    11:00 +20°C° 0.6 mm 4 mps 753 mmHg 68%
    12:00 +21°C° 0.6 mm 4 mps 753 mmHg 64%
    13:00 +21°C° 0.7 mm 4 mps 753 mmHg 66%
    14:00 +20°C° 0.7 mm 3 mps 753 mmHg 69%
    15:00 +20°C° 0.7 mm 3 mps 753 mmHg 72%
    16:00 +19°C° 0.5 mm 3 mps 753 mmHg 75%
    17:00 +19°C° 0.5 mm 3 mps 753 mmHg 78%
    18:00 +18°C° 0.5 mm 3 mps 753 mmHg 82%
    19:00 +17°C° 0 mm 3 mps 754 mmHg 84%
    20:00 +14°C° 0 mm 3 mps 755 mmHg 87%
    21:00 +13°C° 0 mm 3 mps 755 mmHg 90%
    22:00 +12°C° 0 mm 3 mps 755 mmHg 92%
    23:00 +12°C° 0 mm 3 mps 755 mmHg 93%

    10 June, Wednesday

    Time Temperature Precipitation Wind Pressure Humidity
    00:00 +12°C° 0 mm 2 mps 755 mmHg 95%
    01:00 +11°C° 0 mm 3 mps 755 mmHg 96%
    02:00 +11°C° 0 mm 3 mps 755 mmHg 96%
    03:00 +11°C° 0 mm 3 mps 755 mmHg 97%
    04:00 +11°C° 0 mm 3 mps 756 mmHg 96%
    05:00 +11°C° 0 mm 3 mps 756 mmHg 96%
    06:00 +11°C° 0 mm 3 mps 756 mmHg 95%
    07:00 +12°C° 0 mm 3 mps 756 mmHg 93%
    08:00 +13°C° 0 mm 3 mps 756 mmHg 91%
    09:00 +13°C° 0 mm 3 mps 756 mmHg 89%
    10:00 +14°C° 0 mm 3 mps 756 mmHg 83%
    11:00 +17°C° 0 mm 3 mps 756 mmHg 78%
    12:00 +18°C° 0 mm 4 mps 756 mmHg 73%
    13:00 +19°C° 0 mm 4 mps 756 mmHg 68%
    14:00 +20°C° 0 mm 4 mps 755 mmHg 64%
    15:00 +21°C° 0 mm 5 mps 755 mmHg 60%
    16:00 +20°C° 0.1 mm 5 mps 755 mmHg 65%
    17:00 +19°C° 0.1 mm 5 mps 755 mmHg 70%
    18:00 +17°C° 0.1 mm 5 mps 755 mmHg 76%
    19:00 +17°C° 0 mm 4 mps 756 mmHg 81%
    20:00 +15°C° 0 mm 4 mps 756 mmHg 87%
    21:00 +13°C° 0 mm 3 mps 757 mmHg 92%
    22:00 +13°C° 0 mm 3 mps 757 mmHg 93%
    23:00 +12°C° 0 mm 3 mps 757 mmHg 95%
    Show more